• în România
  • Lista ţărilor
  • Pe 7 zile
  • Temperatura apei
  • Hartă satelitară
  • Meteo pe hartă
  • Widget-uri
  • user-avatar
    Intrare

    Meteo pe oră la Ukraincev

    Astăzi, 19 Iulie, Joi

    Timp Temperatura Precipitaţii Vânt Presiune Umiditate
    00:00 +19°C° 0,2 mm 5 m/s 736 mmHg 92%
    01:00 +19°C° 0,2 mm 5 m/s 736 mmHg 93%
    02:00 +18°C° 0,2 mm 4 m/s 736 mmHg 94%
    03:00 +18°C° 0 mm 4 m/s 736 mmHg 96%
    04:00 +19°C° 0,3 mm 4 m/s 737 mmHg 94%
    05:00 +19°C° 0,3 mm 4 m/s 737 mmHg 93%
    06:00 +19°C° 0,3 mm 4 m/s 737 mmHg 92%
    07:00 +20°C° 0,1 mm 5 m/s 737 mmHg 89%
    08:00 +21°C° 0,1 mm 5 m/s 737 mmHg 86%
    09:00 +23°C° 0 mm 5 m/s 738 mmHg 82%
    10:00 +23°C° 0 mm 5 m/s 738 mmHg 77%
    11:00 +24°C° 0 mm 6 m/s 738 mmHg 73%
    12:00 +26°C° 0 mm 6 m/s 738 mmHg 69%
    13:00 +27°C° 0,1 mm 6 m/s 738 mmHg 67%
    14:00 +27°C° 0,1 mm 6 m/s 738 mmHg 65%
    15:00 +28°C° 0,1 mm 6 m/s 738 mmHg 63%
    16:00 +27°C° 0,7 mm 5 m/s 739 mmHg 68%
    17:00 +27°C° 0,7 mm 4 m/s 739 mmHg 72%
    18:00 +27°C° 0,7 mm 3 m/s 739 mmHg 76%
    19:00 +25°C° 0,3 mm 3 m/s 739 mmHg 79%
    20:00 +24°C° 0,3 mm 3 m/s 739 mmHg 82%
    21:00 +22°C° 0,3 mm 3 m/s 739 mmHg 86%
    22:00 +21°C° 0,2 mm 3 m/s 739 mmHg 87%
    23:00 +21°C° 0,2 mm 3 m/s 739 mmHg 88%

    Mâine, 20 Iulie, Vineri

    Timp Temperatura Precipitaţii Vânt Presiune Umiditate
    00:00 +20°C° 0,2 mm 3 m/s 739 mmHg 89%
    01:00 +20°C° 0,3 mm 3 m/s 739 mmHg 90%
    02:00 +20°C° 0,3 mm 3 m/s 740 mmHg 92%
    03:00 +19°C° 0,3 mm 3 m/s 740 mmHg 93%
    04:00 +20°C° 0 mm 3 m/s 740 mmHg 92%
    05:00 +20°C° 0 mm 3 m/s 740 mmHg 91%
    06:00 +20°C° 0 mm 3 m/s 740 mmHg 90%
    07:00 +22°C° 0,4 mm 3 m/s 740 mmHg 85%
    08:00 +23°C° 0,4 mm 4 m/s 740 mmHg 81%
    09:00 +26°C° 0,4 mm 4 m/s 740 mmHg 76%
    10:00 +27°C° 1,1 mm 4 m/s 740 mmHg 72%
    11:00 +28°C° 1,1 mm 3 m/s 740 mmHg 68%
    12:00 +29°C° 1,1 mm 2 m/s 740 mmHg 64%
    13:00 +29°C° 0,7 mm 2 m/s 740 mmHg 63%
    14:00 +29°C° 0,7 mm 3 m/s 740 mmHg 62%
    15:00 +29°C° 0,7 mm 3 m/s 740 mmHg 61%
    16:00 +28°C° 0,5 mm 3 m/s 740 mmHg 67%
    17:00 +27°C° 0,5 mm 3 m/s 740 mmHg 74%
    18:00 +26°C° 0,5 mm 3 m/s 740 mmHg 81%
    19:00 +25°C° 0 mm 3 m/s 740 mmHg 84%
    20:00 +24°C° 0 mm 3 m/s 740 mmHg 87%
    21:00 +23°C° 0 mm 2 m/s 740 mmHg 90%
    22:00 +21°C° 0 mm 2 m/s 740 mmHg 91%
    23:00 +21°C° 0 mm 2 m/s 740 mmHg 92%

    Poimâine, 21 Iulie, Sâmbătă

    Timp Temperatura Precipitaţii Vânt Presiune Umiditate
    00:00 +20°C° 0 mm 2 m/s 740 mmHg 92%
    01:00 +20°C° 0,1 mm 2 m/s 740 mmHg 93%
    02:00 +19°C° 0,1 mm 2 m/s 740 mmHg 94%
    03:00 +19°C° 0,1 mm 2 m/s 740 mmHg 95%
    04:00 +19°C° 0,1 mm 2 m/s 740 mmHg 94%
    05:00 +20°C° 0,1 mm 2 m/s 740 mmHg 93%
    06:00 +20°C° 0,1 mm 2 m/s 740 mmHg 92%
    07:00 +21°C° 0 mm 2 m/s 740 mmHg 87%
    08:00 +24°C° 0 mm 3 m/s 740 mmHg 81%
    09:00 +26°C° 0 mm 3 m/s 740 mmHg 76%
    10:00 +27°C° 0,5 mm 3 m/s 740 mmHg 72%
    11:00 +27°C° 0,5 mm 3 m/s 740 mmHg 68%
    12:00 +28°C° 0,5 mm 3 m/s 740 mmHg 64%
    13:00 +29°C° 0,8 mm 3 m/s 740 mmHg 63%
    14:00 +29°C° 0,8 mm 3 m/s 740 mmHg 63%
    15:00 +29°C° 0,8 mm 3 m/s 740 mmHg 62%
    16:00 +28°C° 0,9 mm 3 m/s 740 mmHg 66%
    17:00 +28°C° 0,9 mm 2 m/s 740 mmHg 70%
    18:00 +27°C° 0,9 mm 2 m/s 740 mmHg 75%
    19:00 +26°C° 0,1 mm 2 m/s 740 mmHg 79%
    20:00 +24°C° 0,1 mm 2 m/s 740 mmHg 83%
    21:00 +23°C° 0,1 mm 2 m/s 740 mmHg 88%
    22:00 +21°C° 0 mm 2 m/s 740 mmHg 89%
    23:00 +21°C° 0 mm 2 m/s 740 mmHg 90%

    22 Iulie, Duminică

    Timp Temperatura Precipitaţii Vânt Presiune Umiditate
    00:00 +22°C° 0 mm 1 m/s 740 mmHg 92%
    01:00 +21°C° 0,2 mm 1 m/s 740 mmHg 92%
    02:00 +21°C° 0,2 mm 1 m/s 740 mmHg 93%
    03:00 +20°C° 0,2 mm 2 m/s 740 mmHg 93%
    04:00 +20°C° 0 mm 2 m/s 740 mmHg 93%
    05:00 +21°C° 0 mm 2 m/s 740 mmHg 92%
    06:00 +21°C° 0 mm 2 m/s 740 mmHg 91%
    07:00 +24°C° 0 mm 2 m/s 740 mmHg 85%
    08:00 +25°C° 0 mm 2 m/s 740 mmHg 80%
    09:00 +27°C° 0 mm 2 m/s 740 mmHg 74%
    10:00 +28°C° 1,1 mm 2 m/s 740 mmHg 70%
    11:00 +29°C° 1,1 mm 2 m/s 740 mmHg 66%
    12:00 +29°C° 1,1 mm 2 m/s 740 mmHg 62%
    13:00 +30°C° 0,6 mm 2 m/s 740 mmHg 61%
    14:00 +30°C° 0,6 mm 2 m/s 740 mmHg 60%
    15:00 +30°C° 0,6 mm 2 m/s 740 mmHg 59%
    16:00 +30°C° 0,4 mm 2 m/s 740 mmHg 63%
    17:00 +30°C° 0,4 mm 2 m/s 740 mmHg 67%
    18:00 +29°C° 0,4 mm 2 m/s 740 mmHg 71%
    19:00 +27°C° 0,3 mm 2 m/s 740 mmHg 75%
    20:00 +26°C° 0,3 mm 2 m/s 740 mmHg 80%
    21:00 +24°C° 0,3 mm 2 m/s 741 mmHg 84%
    22:00 +24°C° 0,1 mm 2 m/s 741 mmHg 86%
    23:00 +23°C° 0,1 mm 2 m/s 740 mmHg 88%

    23 Iulie, Luni

    Timp Temperatura Precipitaţii Vânt Presiune Umiditate
    00:00 +23°C° 0,1 mm 2 m/s 740 mmHg 90%
    01:00 +21°C° 0,3 mm 2 m/s 740 mmHg 91%
    02:00 +21°C° 0,3 mm 2 m/s 740 mmHg 92%
    03:00 +21°C° 0,3 mm 2 m/s 740 mmHg 93%
    04:00 +21°C° 0,2 mm 2 m/s 741 mmHg 92%
    05:00 +21°C° 0,2 mm 2 m/s 741 mmHg 91%
    06:00 +23°C° 0,2 mm 2 m/s 741 mmHg 91%
    07:00 +24°C° 0,3 mm 2 m/s 741 mmHg 86%
    08:00 +26°C° 0,3 mm 2 m/s 741 mmHg 81%
    09:00 +27°C° 0,3 mm 3 m/s 741 mmHg 77%
    10:00 +28°C° 1,2 mm 3 m/s 741 mmHg 73%
    11:00 +28°C° 1,2 mm 3 m/s 741 mmHg 69%
    12:00 +29°C° 1,2 mm 3 m/s 741 mmHg 64%
    13:00 +29°C° 0,7 mm 3 m/s 741 mmHg 64%
    14:00 +30°C° 0,7 mm 2 m/s 741 mmHg 63%
    15:00 +30°C° 0,7 mm 2 m/s 741 mmHg 62%
    16:00 +29°C° 1,6 mm 3 m/s 741 mmHg 67%
    17:00 +28°C° 1,6 mm 3 m/s 741 mmHg 72%
    18:00 +27°C° 1,6 mm 3 m/s 742 mmHg 78%
    19:00 +26°C° 0,4 mm 3 m/s 742 mmHg 81%
    20:00 +25°C° 0,4 mm 3 m/s 742 mmHg 85%
    21:00 +24°C° 0,4 mm 3 m/s 742 mmHg 88%
    22:00 +22°C° 0 mm 3 m/s 742 mmHg 89%
    23:00 +22°C° 0 mm 3 m/s 742 mmHg 90%

    24 Iulie, Marţi

    Timp Temperatura Precipitaţii Vânt Presiune Umiditate
    00:00 +21°C° 0 mm 3 m/s 742 mmHg 91%
    01:00 +21°C° 0 mm 3 m/s 742 mmHg 92%
    02:00 +21°C° 0 mm 3 m/s 743 mmHg 93%
    03:00 +20°C° 0 mm 3 m/s 743 mmHg 94%
    04:00 +20°C° 0,1 mm 3 m/s 743 mmHg 93%
    05:00 +21°C° 0,1 mm 3 m/s 743 mmHg 93%
    06:00 +21°C° 0,1 mm 3 m/s 743 mmHg 92%
    07:00 +22°C° 0 mm 3 m/s 744 mmHg 88%
    08:00 +24°C° 0 mm 3 m/s 744 mmHg 83%
    09:00 +26°C° 0 mm 3 m/s 744 mmHg 79%
    10:00 +26°C° 0,8 mm 3 m/s 744 mmHg 76%
    11:00 +27°C° 0,8 mm 4 m/s 744 mmHg 72%
    12:00 +28°C° 0,8 mm 4 m/s 744 mmHg 69%
    13:00 +28°C° 0,5 mm 4 m/s 745 mmHg 70%
    14:00 +28°C° 0,5 mm 5 m/s 745 mmHg 71%
    15:00 +27°C° 0,5 mm 5 m/s 745 mmHg 73%
    16:00 +27°C° 0,5 mm 4 m/s 745 mmHg 75%
    17:00 +27°C° 0,5 mm 3 m/s 745 mmHg 78%
    18:00 +26°C° 0,5 mm 2 m/s 745 mmHg 80%
    19:00 +25°C° 0,1 mm 2 m/s 745 mmHg 81%
    20:00 +25°C° 0,1 mm 2 m/s 746 mmHg 82%
    21:00 +24°C° 0,1 mm 2 m/s 746 mmHg 83%
    22:00 +23°C° 0 mm 2 m/s 746 mmHg 84%
    23:00 +23°C° 0 mm 2 m/s 746 mmHg 85%
    Arată mai mult